The Dalles, WA

3:48 PM PDT on July 20, 2019 (GMT -0700)
Columbia Gorge Regional-The Dalles

Weather History for KDLS - May, 2019

Change the Weather History Date:

Tuesday, May 21, 2019

  Actual Average Record
Temperature  
Mean Temperature 56 °F -  
Max Temperature 64 °F 77 °F 95 °F (1958)
Min Temperature 48 °F 49 °F 35 °F (1960)
Degree Days  
Heating Degree Days 9    
Growing Degree Days 6 (Base 50)    
Moisture  
Dew Point 46 °F    
Average Humidity 70    
Maximum Humidity 86    
Minimum Humidity 48    
Precipitation  
Precipitation 0.05 in - - ()
Sea Level Pressure  
Sea Level Pressure 29.71 in    
Wind  
Wind Speed 5 mph (NW)    
Max Wind Speed 13 mph    
Max Gust Speed -    
Visibility 10 miles    
Events Rain    
Averages and records for this station are not official NWS values.
T = Trace of Precipitation, MM = Missing Value Source: NWS Daily Summary

Daily Weather History Graph

Daily Weather History Graph

Search for Another Location

Airport or City:

Astronomy

May. 21, 2019 Rise Set
Actual Time 5:27 AM PDT 8:35 PM PDT
Civil Twilight 4:51 AM PDT 9:11 PM PDT
Nautical Twilight 4:06 AM PDT 9:57 PM PDT
Astronomical Twilight 3:10 AM PDT 10:54 PM PDT
Moon 11:38 PM PDT (5/21) 7:45 AM PDT (5/21)
Length of Visible Light 16h 19m
Length of Day
15h 08m
Waning Gibbous, 91% of the Moon is Illuminated
May 21
Waning Gibbous
May 26
Last Quarter
Jun 3
New
Jun 9
First Quarter
Jun 17
Full

Hourly Weather History & Observations

Time (PDT) Temp. Dew Point Humidity Pressure Visibility Wind Dir Wind Speed Gust Speed Precip Events Conditions
12:53 AM 50.0 °F 46.0 °F 86% 29.71 in 10.0 mi NW 4.6 mph - N/A   Overcast
1:53 AM 50.0 °F 46.0 °F 86% 29.69 in 10.0 mi Calm Calm - N/A   Overcast
2:53 AM 50.0 °F 46.0 °F 86% 29.67 in 10.0 mi SSW 4.6 mph - N/A   Overcast
3:53 AM 50.0 °F 45.0 °F 83% 29.68 in 10.0 mi Calm Calm - N/A   Overcast
4:53 AM 48.9 °F 44.1 °F 83% 29.68 in 10.0 mi NW 6.9 mph - N/A   Partly Cloudy
5:53 AM 50.0 °F 45.0 °F 83% 29.68 in 10.0 mi Calm Calm - N/A   Overcast
6:53 AM 50.0 °F 46.0 °F 86% 29.69 in 10.0 mi SSW 3.5 mph - N/A   Mostly Cloudy
7:53 AM 52.0 °F 45.0 °F 77% 29.69 in 10.0 mi Calm Calm - N/A   Mostly Cloudy
8:53 AM 53.1 °F 45.0 °F 74% 29.69 in 10.0 mi Calm Calm - N/A   Clear
9:53 AM 54.0 °F 46.0 °F 75% 29.69 in 10.0 mi Calm Calm - N/A   Clear
10:53 AM 59.0 °F 46.0 °F 62% 29.69 in 10.0 mi NW 5.8 mph - N/A   Clear
11:53 AM 61.0 °F 44.1 °F 54% 29.69 in 10.0 mi NW 9.2 mph - N/A   Partly Cloudy
12:53 PM 63.0 °F 44.1 °F 50% 29.68 in 10.0 mi North 9.2 mph - N/A   Mostly Cloudy
1:53 PM 63.0 °F 44.1 °F 50% 29.68 in 10.0 mi NW 9.2 mph - N/A   Overcast
2:53 PM 64.0 °F 44.1 °F 48% 29.68 in 10.0 mi Variable 4.6 mph - N/A   Overcast
3:53 PM 63.0 °F 45.0 °F 52% 29.70 in 10.0 mi NW 11.5 mph - N/A   Overcast
4:53 PM 61.0 °F 46.0 °F 58% 29.70 in 10.0 mi NNW 5.8 mph - 0.00 in   Overcast
5:53 PM 60.1 °F 45.0 °F 57% 29.71 in 10.0 mi NW 10.4 mph - N/A   Overcast
6:53 PM 59.0 °F 46.9 °F 64% 29.73 in 10.0 mi NW 12.7 mph - 0.00 in   Overcast
7:53 PM 59.0 °F 46.9 °F 64% 29.74 in 10.0 mi NW 11.5 mph - N/A   Overcast
8:53 PM 59.0 °F 46.9 °F 64% 29.77 in 10.0 mi NNW 11.5 mph - 0.01 in Rain Light Rain
9:53 PM 57.0 °F 48.0 °F 72% 29.79 in 10.0 mi West 11.5 mph - 0.00 in Rain Light Rain
10:53 PM 55.9 °F 48.9 °F 77% 29.81 in 10.0 mi NW 12.7 mph - 0.02 in Rain Light Rain
11:53 PM 55.9 °F 48.9 °F 77% 29.81 in 10.0 mi WNW 6.9 mph - 0.02 in   Overcast